Location: Fort Worth, Tx
(32.7431°N, 97.3695°W)
Time: 21:18:05
(UTC-05:00)

Tiros 1 - Pass Details

Date: 06 October 2024
Orbit: 622 x 654 km, 48.4° (Epoch: 05 November)

Event Time Altitude Azimuth Distance (km) Brightness Sun altitude
Rises 10:07:58 0° 255° (WSW) 2,929 10.1 19.7°
Reaches altitude 10° 10:10:30 10° 266° (W) 2,016 9.2 20.2°
Maximum altitude 10:14:40 32° 330° (NNW) 1,077 8.1 21.0°
Drops below altitude 10° 10:18:50 10° 34° (NE) 2,003 9.9 21.8°
Sets 10:21:20 0° 44° (NE) 2,907 10.8 22.3°
